Regional Weather Roundup
Issued by NWS

Home | Current Version | Previous Version | Text Only | Print | Product List | Glossary On
Versions: 1 2 3 4 5 6 7 8 9 10 11 12 13 14 15 16 17 18 19 20 21 22 23 24 25 26 27 28 29 30 31 32 33 34 35 36 37 38 39 40 41 42 43 44 45 46 47 48 49 50
000
ASUS43 KLMK 251010
RWRKY
KENTUCKY REGIONAL WEATHER ROUNDUP
NATIONAL WEATHER SERVICE LOUISVILLE KY
600 AM EDT MON SEP 25 2017

NOTE "FAIR" INDICATES FEW OR NO CLOUDS BELOW 12,000 FEET
WITH NO SIGNIFICANT WEATHER AND/OR OBSTRUCTIONS TO VISIBILITY.

KYZ001>023-026-027-061>063-070>075-251100-
WESTERN AND SOUTH CENTRAL KENTUCKY

CITY           SKY/WX    TMP DP  RH WIND       PRES   REMARKS
PADUCAH        CLEAR     64  61  90 W3        29.99R
HENDERSON      PTCLDY    66  64  93 CALM      30.01S
OWENSBORO      CLEAR     67  66  97 CALM      30.01S
HOPKINSVILLE   CLEAR     66  66 100 CALM      30.01R FOG
BOWLING GREEN  CLEAR     67  67 100 CALM      30.02S FOG
GLASGOW        FOG      N/A N/A N/A CALM      30.03R VSB 1/4
$$

KYZ024-025-028>034-038-045-046-053-251100-
NORTH CENTRAL KENTUCKY

CITY           SKY/WX    TMP DP  RH WIND       PRES   REMARKS
LOUISVILLE/SDF PTCLDY    70  63  78 S3        30.02R
LOUISVILLE/LOU CLEAR     65  64  97 CALM      30.02S
FORT KNOX      CLEAR     64  64 100 CALM      30.01S
$$

KYZ035>037-039>044-047>052-055>060-089>105-251100-
NORTHEAST KENTUCKY

CITY           SKY/WX    TMP DP  RH WIND       PRES   REMARKS
LEXINGTON      CLEAR     65  59  81 CALM      30.04S
COVINGTON      PTCLDY    64  61  90 CALM      30.04S
FRANKFORT      CLEAR     62  58  86 CALM      30.02S
$$

KYZ054-064>069-076>088-106>120-251100-
SOUTHEAST KENTUCKY

CITY           SKY/WX    TMP DP  RH WIND       PRES   REMARKS
JACKSON        PTCLDY    67  60  78 E3        30.06S
LONDON         CLOUDY    63  61  93 CALM      30.05S
SOMERSET       CLEAR     59  59 100 CALM      30.06S FOG
MIDDLESBORO    FOG       60  60 100 CALM      30.08S VSB 3/4
MONTICELLO     FOG       63  63 100 CALM      30.07R VSB 1
$$





USA.gov is the U.S. government's official web portal to all federal, state and local government web resources and services.